Weather reports worldwide

Advertisment
Boulogne, France (7002): temperature & dewpoint: 20.09.2020 14:00:00 - 26.09.2020 14:00:00 (CEST)Boulogne, France (7002): wind speed & gusts: 20.09.2020 14:00:00 - 26.09.2020 14:00:00 (CEST)Boulogne, France (7002): wind direction: 20.09.2020 14:00:00 - 26.09.2020 14:00:00 (CEST)Boulogne, France (7002): reduced air pressure: 20.09.2020 14:00:00 - 26.09.2020 14:00:00 (CEST)Boulogne, France (7002): visibility: 20.09.2020 14:00:00 - 26.09.2020 14:00:00 (CEST)Boulogne, France (7002): precipitation: 20.09.2020 14:00:00 - 26.09.2020 14:00:00 (CEST)
Date & Time tt [°C] td [°C] ff [km/h] ff [kn] fx [km/h] fx [kn] dd ppp [hPa] vv [km] rr [mm]
26.09.2020 14:00:00 10,8 6,3 39 21 70 38 NW 1007,8 15 0,0
26.09.2020 13:00:00 10,7 5,4 42 23 70 38 NW 1007,5 - 0,0
26.09.2020 12:00:00 10,4 5,6 44 24 72 39 NNW 1007,6 - 0,2
26.09.2020 11:00:00 9,2 5,9 40 22 71 39 NNW 1007,9 - 0,0
26.09.2020 10:00:00 10,2 5,6 44 24 70 38 NNW 1007,4 - 0,0
26.09.2020 09:00:00 9,8 5,2 44 24 74 40 NNW 1007,2 - 0,0
26.09.2020 08:00:00 9,7 5,1 44 24 77 42 NNW 1006,7 - 0,0
26.09.2020 07:00:00 9,8 5,2 46 25 79 43 NW 1006,3 - 0,0
26.09.2020 06:00:00 10,0 5,2 49 26 81 44 NNW 1006,1 - 0,0
26.09.2020 05:00:00 10,3 5,7 46 25 86 46 NW 1006,0 - 0,0
26.09.2020 04:00:00 10,4 5,4 50 27 86 47 NNW 1006,2 - 0,0
26.09.2020 03:00:00 10,9 5,4 52 28 86 46 NNW 1006,1 - 0,0
26.09.2020 02:00:00 11,3 5,4 51 28 87 47 NW 1005,7 12 0,0
26.09.2020 01:00:00 11,8 5,6 52 28 95 51 NW 1005,6 - 0,0
26.09.2020 00:00:00 12,1 5,9 56 30 93 50 NW 1005,6 - 0,0
25.09.2020 23:00:00 12,6 6,0 51 27 86 47 NW 1005,2 15 0,0
25.09.2020 22:00:00 13,1 4,0 46 25 87 47 NW 1004,9 - 0,0
25.09.2020 21:00:00 13,6 5,2 48 26 88 48 NW 1004,4 - 0,0
25.09.2020 20:00:00 13,6 5,5 47 26 85 46 NW 1004,0 - 0,0
25.09.2020 19:00:00 13,6 5,0 45 25 84 46 NW 1003,4 - 0,0
25.09.2020 18:00:00 13,1 6,0 43 23 80 43 NW 1003,1 - 0,0
25.09.2020 17:00:00 12,7 5,6 50 27 81 44 NW 1002,7 15 0,0
25.09.2020 16:00:00 12,6 6,6 44 24 79 43 NW 1002,0 - 0,0
25.09.2020 15:00:00 12,2 6,5 43 23 79 43 WNW 1001,3 - 0,0
25.09.2020 14:00:00 11,3 6,6 41 22 72 39 NW 1000,8 15 0,0
25.09.2020 13:00:00 11,0 7,5 41 22 68 37 NW 1000,0 - 0,0
25.09.2020 12:00:00 10,7 7,9 41 22 66 36 NW 998,8 - 0,2
25.09.2020 11:00:00 10,3 7,5 37 20 67 36 NW 998,0 - 0,0
25.09.2020 10:00:00 9,9 7,7 39 21 68 37 NW 996,9 - 0,0
25.09.2020 09:00:00 9,8 7,0 38 20 61 33 NW 996,2 - 0,0
25.09.2020 08:00:00 8,0 7,1 4 2 13 7 N 995,4 - 1,3
25.09.2020 07:00:00 7,7 6,9 9 5 23 13 NNE 995,1 - 5,4
25.09.2020 06:00:00 7,9 7,1 11 6 24 13 NE 994,3 - 5,6
25.09.2020 05:00:00 7,9 7,1 11 6 27 14 ESE 993,7 6 3,5
25.09.2020 04:00:00 8,1 7,3 11 6 29 16 E 994,1 - 3,2
25.09.2020 03:00:00 8,1 7,2 10 5 22 12 SE 994,8 - 2,0
25.09.2020 02:00:00 8,0 6,9 12 6 34 18 SE 995,4 6 0,8
25.09.2020 01:00:00 8,6 7,1 12 6 49 27 E 994,9 - 3,5
25.09.2020 00:00:00 9,8 8,1 9 5 39 21 NNW 995,4 - 1,2
24.09.2020 23:00:00 10,6 7,5 12 6 37 20 SSW 994,9 12 0,4
24.09.2020 22:00:00 9,9 8,0 27 15 69 37 WSW 995,4 - 1,8
24.09.2020 21:00:00 10,5 9,4 21 11 32 18 SSE 994,7 - 0,0
24.09.2020 20:00:00 10,8 9,2 10 6 50 27 SE 994,6 - 2,4
24.09.2020 19:00:00 11,1 9,4 29 16 72 39 WSW 996,4 - 5,3
24.09.2020 18:00:00 13,7 10,7 15 8 33 18 SSE 995,8 - 0,0
24.09.2020 17:00:00 14,7 10,3 19 11 39 21 S 997,1 12 0,2
24.09.2020 16:00:00 14,4 10,2 23 12 58 31 SSW 998,0 - 0,0
24.09.2020 15:00:00 15,1 10,1 25 13 50 27 SW 998,6 - 0,2
24.09.2020 14:00:00 13,2 10,2 28 15 57 31 SSW 999,3 7 0,0
24.09.2020 13:00:00 12,1 9,7 28 15 55 30 SSW 999,6 - 0,4
24.09.2020 12:00:00 11,4 10,5 38 20 75 41 SW 999,9 - 1,8
24.09.2020 11:00:00 14,2 10,2 36 20 78 42 SSW 999,5 14 0,0
24.09.2020 10:00:00 13,9 9,7 37 20 73 39 SSW 999,5 - 0,0
24.09.2020 09:00:00 12,8 9,1 32 18 66 36 S 1000,0 - 0,0
24.09.2020 08:00:00 13,1 9,5 31 17 64 35 S 1000,4 - 0,0
24.09.2020 07:00:00 14,2 10,0 34 18 67 36 SSW 1000,8 - 0,0
24.09.2020 06:00:00 14,2 8,8 41 22 61 33 SW 1001,2 - 0,0
24.09.2020 05:00:00 14,0 9,0 35 19 57 31 WSW 1001,6 - 0,0
24.09.2020 04:00:00 13,8 8,0 33 18 58 31 WSW 1001,9 - 0,0
24.09.2020 03:00:00 13,5 7,3 34 18 67 36 W 1001,6 - 0,0
24.09.2020 02:00:00 13,9 8,5 42 23 68 37 W 1001,1 - 0,0
24.09.2020 01:00:00 14,5 9,3 38 21 72 39 W 1000,5 - 0,0
24.09.2020 00:00:00 14,6 10,4 38 21 78 42 WSW 1000,1 - 0,0
23.09.2020 23:00:00 15,2 9,8 53 29 79 43 WSW 999,6 12 0,2
23.09.2020 22:00:00 14,8 11,4 43 23 70 38 WSW 999,7 - 0,0
23.09.2020 21:00:00 15,4 14,4 36 19 62 33 WSW 998,9 - 2,2
23.09.2020 20:00:00 16,1 15,1 16 9 32 17 SSW 999,3 12 0,2
23.09.2020 19:00:00 16,6 15,1 24 13 52 28 SW 999,6 - 0,4
23.09.2020 18:00:00 16,8 15,1 24 13 41 22 S 1000,0 - 1,0
23.09.2020 17:00:00 17,2 14,5 24 13 44 24 S 1000,9 - 0,0
23.09.2020 16:00:00 18,2 13,9 19 11 44 24 S 1001,7 - 0,0
23.09.2020 15:00:00 18,0 14,3 24 13 52 28 SSW 1002,6 - 0,0
23.09.2020 14:00:00 17,7 15,0 28 15 54 29 SW 1003,2 12 0,0
23.09.2020 13:00:00 17,8 15,6 35 19 54 29 SW 1003,3 - 0,2
23.09.2020 12:00:00 16,9 15,4 27 15 43 23 SW 1003,6 - 0,2
23.09.2020 11:00:00 16,8 16,0 19 10 30 16 SW 1003,6 12 0,2
23.09.2020 10:00:00 15,9 15,1 21 11 47 25 SSW 1003,7 - 2,2
23.09.2020 09:00:00 16,2 15,2 33 18 53 29 SW 1003,6 - 4,5
23.09.2020 08:00:00 17,3 14,9 24 13 46 25 SSW 1003,5 - 0,0
23.09.2020 07:00:00 17,4 15,2 23 12 41 22 SSW 1003,9 - 0,0
23.09.2020 06:00:00 16,8 15,3 18 10 31 17 S 1004,4 - 0,0
23.09.2020 05:00:00 16,4 15,3 16 9 28 15 S 1004,9 8 0,0
23.09.2020 04:00:00 17,0 15,3 13 7 31 17 S 1005,5 - 0,0
23.09.2020 03:00:00 17,2 15,7 21 12 36 19 SW 1006,1 - 0,0
23.09.2020 02:00:00 17,2 15,4 25 13 41 22 SW 1006,3 8 0,0
23.09.2020 01:00:00 17,1 15,8 17 9 36 20 SW 1006,6 - 0,0
23.09.2020 00:00:00 17,1 16,0 17 9 32 17 SW 1007,0 - 0,0
22.09.2020 23:00:00 17,2 16,1 17 9 37 20 SW 1007,6 8 0,0
22.09.2020 22:00:00 17,1 15,6 18 10 30 16 SW 1008,0 - 0,0
22.09.2020 21:00:00 16,5 14,7 10 5 32 17 SW 1008,0 - 0,0
22.09.2020 20:00:00 16,6 14,4 21 11 32 18 WSW 1008,4 - 0,0
22.09.2020 19:00:00 17,4 14,7 22 12 32 17 WSW 1008,4 - 0,0
22.09.2020 18:00:00 18,2 15,4 20 11 29 16 SW 1008,5 - 0,0
22.09.2020 17:00:00 18,8 14,5 19 10 30 16 SW 1009,2 - 0,0
22.09.2020 16:00:00 19,1 14,1 18 10 29 16 WSW 1009,8 - 0,0
22.09.2020 15:00:00 19,0 14,5 16 9 29 16 SW 1010,3 - 0,0
22.09.2020 14:00:00 18,9 14,4 18 10 26 14 WSW 1010,8 - 0,0
22.09.2020 13:00:00 19,0 13,4 16 9 23 12 WSW 1011,5 - 0,0
22.09.2020 12:00:00 18,2 13,5 13 7 20 11 WSW 1012,0 - 0,0
22.09.2020 11:00:00 17,4 13,1 5 3 13 7 SSW 1012,5 - 0,0
22.09.2020 10:00:00 16,0 11,8 6 3 11 6 SSE 1012,6 - 0,0
22.09.2020 09:00:00 14,2 11,7 8 5 13 7 SSE 1012,7 - 0,0
22.09.2020 08:00:00 13,3 10,8 8 5 11 6 SSE 1012,7 8 0,0
22.09.2020 07:00:00 13,2 9,4 8 5 13 7 SSE 1012,7 - 0,0
22.09.2020 06:00:00 13,2 10,0 8 5 11 6 SE 1013,0 - 0,0
22.09.2020 05:00:00 13,1 10,6 8 4 11 6 SE 1013,5 - 0,0
22.09.2020 04:00:00 12,7 11,1 6 3 10 5 SE 1014,1 - 0,0
22.09.2020 03:00:00 13,8 12,4 3 2 5 3 N 1014,3 - 0,0
22.09.2020 02:00:00 13,8 12,5 3 2 4 2 WNW 1014,9 6 0,0
22.09.2020 01:00:00 13,6 12,3 3 2 15 8 E 1015,4 - 0,0
22.09.2020 00:00:00 15,1 14,0 11 6 16 9 E 1015,6 - 0,0
21.09.2020 23:00:00 15,3 13,8 11 6 18 10 E 1015,8 16 0,0
21.09.2020 22:00:00 15,6 13,6 10 5 18 10 ENE 1015,8 - 0,0
21.09.2020 21:00:00 16,2 13,5 13 7 19 11 E 1015,8 - 0,0
21.09.2020 20:00:00 16,9 13,4 9 5 23 12 NE 1015,5 - 0,0
21.09.2020 19:00:00 18,4 13,9 10 6 22 12 NNE 1015,7 - 0,0
21.09.2020 18:00:00 20,2 13,4 10 5 25 13 N 1015,8 - 0,0
21.09.2020 17:00:00 19,7 15,1 16 9 32 17 N 1016,2 10 0,0
21.09.2020 16:00:00 21,6 13,2 9 5 24 13 N 1016,3 - 0,0
21.09.2020 15:00:00 21,3 12,7 12 6 24 13 NNE 1016,6 - 0,0
21.09.2020 14:00:00 21,4 12,0 10 5 25 13 NE 1017,0 - 0,0
21.09.2020 13:00:00 20,5 11,9 10 6 25 13 NNE 1017,3 - 0,0
21.09.2020 12:00:00 19,3 13,5 9 5 22 12 N 1017,5 - 0,0
21.09.2020 11:00:00 17,9 14,0 8 4 19 10 NE 1017,7 12 0,0
21.09.2020 10:00:00 17,2 13,3 8 4 16 9 ENE 1017,6 - 0,0
21.09.2020 09:00:00 15,3 12,4 8 5 19 10 ENE 1017,4 - 0,0
21.09.2020 08:00:00 14,8 12,3 14 8 22 12 ENE 1017,2 - 0,0
21.09.2020 07:00:00 14,5 11,6 16 8 25 14 ENE 1016,8 - 0,0
21.09.2020 06:00:00 14,4 11,2 20 11 28 15 ENE 1016,9 - 0,0
21.09.2020 05:00:00 15,1 11,5 20 11 29 16 ENE 1016,8 12 0,0
21.09.2020 04:00:00 14,6 11,7 15 8 22 12 ENE 1017,1 - 0,0
21.09.2020 03:00:00 15,0 12,9 15 8 25 14 ENE 1017,6 - 0,0
21.09.2020 02:00:00 14,7 12,9 7 4 14 8 NE 1017,9 - 0,0
21.09.2020 01:00:00 14,9 12,6 3 2 26 14 ENE 1017,8 - 0,0
21.09.2020 00:00:00 15,4 12,9 14 7 37 20 ENE 1017,8 - 0,0
20.09.2020 23:00:00 15,7 13,0 22 12 37 20 ENE 1017,8 15 0,0
20.09.2020 22:00:00 16,1 13,2 18 10 36 20 ENE 1017,8 - 0,0
20.09.2020 21:00:00 16,5 13,0 12 7 31 17 NE 1017,7 - 0,0
20.09.2020 20:00:00 17,3 13,2 13 7 31 17 NE 1017,3 15 0,0
20.09.2020 19:00:00 18,5 13,6 16 9 34 18 NNE 1016,9 - 0,0
20.09.2020 18:00:00 19,7 12,9 13 7 33 18 NNE 1016,9 - 0,0
20.09.2020 17:00:00 20,8 13,7 13 7 26 14 NNE 1016,7 - 0,0
20.09.2020 16:00:00 21,2 13,1 10 5 27 14 NE 1016,7 - 0,0
20.09.2020 15:00:00 22,0 12,5 14 8 30 16 NE 1016,6 - 0,0
20.09.2020 14:00:00 22,2 12,7 12 7 31 17 NE 1016,8 15 0,0

tt = temperature
td = dewpoint
ff = wind speed
fx = gusts
dd = wind direction
ppp = reduced air pressure
vv = visibility
rr = precipitation

Next stations